Simultaneous Nadir Overpasses (SNOs) Predictions

Prediction of SNOs between GOES-15 and TERRA Satellite Orbit:

Table of predicted SNOs for the next 14.0 days since TLE Epoch: 4/13/2024
Index Date Time (GOES-15) GOES-15 Lat,Lon TERRA Lat,Lon Distance(km) Time Diff (sec)
1 04/14/2024 17:47:07 0.12, 61.24 0.14, 61.22 3.09 80
2 04/16/2024 17:27:20 0.12, 61.26 0.97, 65.36 465.43 80
3 04/17/2024 05:47:20 -0.13, 61.31 0.03, 60.49 92.95 80
4 04/19/2024 05:32:53 -0.13, 61.33 -0.83, 64.62 373.81 80
5 04/19/2024 17:53:01 0.13, 61.29 -0.20, 59.72 177.87 80
6 04/21/2024 17:33:14 0.13, 61.31 0.68, 63.85 288.74 80
7 04/22/2024 05:53:13 -0.13, 61.37 0.36, 58.99 269.80 80
8 04/24/2024 05:38:45 -0.14, 61.40 -0.48, 63.13 196.41 80
9 04/24/2024 17:58:53 0.14, 61.35 -0.55, 58.23 355.36 80
10 04/26/2024 17:39:06 0.14, 61.39 0.37, 62.35 109.91 80
